Terminal Aerodrome Forecast
Issued by NWS Dodge City, KS

Home | Current Version | Previous Version | Graphics & Text | Print | Product List | Glossary Off
Versions: 1 2 3 4 5 6 7 8 9 10 11 12 13 14 15 16 17 18 19 20 21 22 23 24 25 26 27 28 29 30 31 32 33 34 35 36 37 38 39 40 41

000
FTUS43 KDDC 030520
TAFDDC
TAF
KDDC 030520Z 0306/0406 06006KT P6SM VCSH OVC070
     FM030900 04005KT 6SM BR VCSH OVC020
     FM031100 04005KT 3SM -SN OVC008
     FM031300 04005KT 3SM BR VCSH OVC003
     FM031700 09006KT P6SM OVC003=

USA.gov is the U.S. government's official web portal to all federal, state and local government web resources and services.